Regional Weather Roundup
Issued by NWS

Home | Current Version | Previous Version | Graphics & Text | Print | Product List | Glossary On
Versions: 1 2 3 4 5 6 7 8 9 10 11 12 13 14 15 16 17 18 19 20 21 22 23 24 25 26 27 28 29 30 31 32 33 34 35 36 37 38 39 40 41 42 43 44 45 46 47 48 49 50
000
ASUS43 KLOT 140108
RWRIL

ILLINOIS REGIONAL WEATHER ROUNDUP
NATIONAL WEATHER SERVICE CHICAGO/ROMEOVILLE IL
700 PM CST WED DEC 13 2017

NOTE: "FAIR" INDICATES FEW OR NO CLOUDS BELOW 12,000 FEET WITH NO
SIGNIFICANT WEATHER AND/OR OBSTRUCTIONS TO VISIBILITY.

* THESE STATIONS ARE NOT UNDER NWS QUALITY CONTROL. THEY ALSO MAY NOT
  REPORT WEATHER SUCH AS PRECIPITATION OR FOG.

ILZ001-002-007-009-015-016-024-140200-
NORTHWEST ILLINOIS

CITY           SKY/WX    TMP DP  RH WIND       PRES   REMARKS
MOLINE         CLOUDY    34  22  61 NW30G38   29.69R WCI  20
STERLING*      CLOUDY    29  23  78 NW23G31   29.66R WCI  15
SAVANNA*       CLOUDY    29  21  73 N17G30    29.68R WCI  17
$$

ILZ003-004-008-010-011-017-018-140200-
NORTH CENTRAL ILLINOIS

CITY           SKY/WX    TMP DP  RH WIND       PRES   REMARKS
ROCKFORD       CLOUDY    27  16  63 NW22G36   29.62R WCI  13
FREEPORT*      CLOUDY    26  18  72 NW23G30   29.65R WCI  11
ROCHELLE*        N/A     28  19  71 NW23      29.61  WCI  13
DE KALB*       CLOUDY    28  19  69 NW18G33   29.57R WCI  15
PERU*          CLOUDY    30  22  71 NW25G37   29.62R WCI  16
$$

ILZ005-006-012>014-019>023-140200-
NORTHEAST ILLINOIS

CITY           SKY/WX    TMP DP  RH WIND       PRES   REMARKS
CHICAGO-OHARE  CLOUDY    29  18  63 NW28G38   29.52R WCI  14
CHICAGO-MIDWAY CLOUDY    30  20  66 NW26G35   29.52R WCI  16
AURORA         CLOUDY    29  20  69 NW22G29   29.56R WCI  15
LANSING*       CLOUDY    31  23  72 NW21G33   29.49R WCI  19
JOLIET*        CLOUDY    32  22  65 NW17G28   29.55R WCI  21
WAUKEGAN       CLOUDY    27  21  78 NW12G24   29.51R HAZE    WCI  17
DUPAGE AIRPORT CLOUDY    28  20  71 NW22G38   29.53R WCI  14
KANKAKEE*      CLOUDY    34  24  68 NW24G32   29.53R WCI  21
WHEELING       CLOUDY    29  20  69 NW24G35   29.53R WCI  15
MORRIS*        CLOUDY    31  22  67 NW21G30   29.56R WCI  19
ROMEOVILLE*    CLOUDY    30  20  68 NW29G36   29.54R WCI  15
NORTHERLY ISL    N/A     30  20  66 NW14        N/A  WCI  20
$$

LMZ740>746-140200-
SOUTHERN LAKE MICHIGAN

STATION/POSITION SKY/WX   TEMP    WIND        PRES    VSBY  WAVE
                          AIR SEA DIR/SP/G                  HT/PER
                          (F)     (DEG/KT/KT) (MB)    (MI)  (FT/S)
HARRISON CRIB              31     310/ 31/ 35   N/A
BURNHAM HARBOR             30     300/ 15/ 25   N/A
CALUMET HARBOR             30     310/ 19/ 28  998.2R
BURNS HARBOR               33     310/ 26/ 32  997.3R
MICHIGAN CITY              32     300/ 35/ 39   N/A
$$

ILZ025>027-034>036-040-047-049-050-058-095>099-140200-
WEST-CENTRAL ILLINOIS

CITY           SKY/WX    TMP DP  RH WIND       PRES   REMARKS
QUINCY         CLOUDY    39  27  62 NW30G44   29.74R WCI  27
GALESBURG*     CLOUDY    33  28  79 W22G32    29.70R WCI  21
MACOMB*        CLOUDY    36  28  74 NW32G44   29.74R WCI  22
JACKSONVILLE*  CLOUDY    38  27  64 NW20G29   29.72R WCI  28
PITTSFIELD*    CLOUDY    42  31  64 NW23G30   29.73R
$$

ILZ028>032-037-038-041>044-048-051>054-059>061-140200-
CENTRAL ILLINOIS

CITY           SKY/WX    TMP DP  RH WIND       PRES   REMARKS
PONTIAC        CLOUDY    34  27  74 NW31G41   29.60R WCI  20
BLOOMINGTON    CLOUDY    36  27  69 NW30G46   29.61R WCI  23
DECATUR        CLOUDY    37  28  70 W23G38    29.64R WCI  26
PEORIA         CLOUDY    36  27  69 NW21G39   29.67R WCI  25
LACON*         CLOUDY    34  24  65 NW23G30   29.64R WCI  22
LINCOLN*       CLOUDY    38  30  74 W14G25    29.66R WCI  29
SPRINGFIELD    CLOUDY    39  28  64 NW31G45   29.69R WCI  27
TAYLORVILLE    CLOUDY    38  29  68 NW25G38   29.68R WCI  27
$$

ILZ033-039-045-046-055>057-062-063-140200-
EAST-CENTRAL ILLINOIS

CITY           SKY/WX    TMP DP  RH WIND       PRES   REMARKS
CHAMPAIGN      CLOUDY    38  30  73 W35G43    29.59R WCI  25
DANVILLE*      CLOUDY    37  28  69 W23G32    29.53R WCI  26
RANTOUL*       CLOUDY    39  28  64 NW36G47   29.56R WCI  26
MATTOON        CLOUDY    39  30  70 NW22G32   29.62R WCI  29
PARIS*         CLOUDY    39  32  77 W23G37    29.60R WCI  28
$$

ILZ079-100>102-140200-
SOUTHWEST ILLINOIS

CITY           SKY/WX    TMP DP  RH WIND       PRES   REMARKS
ALTON          CLEAR     45  34  65 NW20G29   29.71R
BELLEVILLE     CLEAR     45  33  61 MISG      29.67R
CAHOKIA*       CLEAR     50  29  44 NW13G24   29.69R
SPARTA*        CLEAR     50  32  50 NW7       29.70R
$$

ILZ064>066-069>071-074>076-080>082-084>086-088>090-092>094-140200-
SOUTH-CENTRAL ILLINOIS

CITY           SKY/WX    TMP DP  RH WIND       PRES   REMARKS
CARBONDALE     CLEAR     49  28  44 W7        29.69R
CAIRO*         CLEAR     47  29  49 SW12G18   29.72R
EFFINGHAM*     CLOUDY    43  34  71 W25       29.67R
MARION         PTCLDY    41  27  56 SW9       29.69R
MT. VERNON     CLEAR     46  34  62 VRB3      29.68R
CENTRALIA*     CLEAR     45  35  69 NW12G18   29.68R
SALEM*         CLEAR     45  33  63 NW12G20   29.67R
METROPOLIS*    CLEAR     48  28  45 SW7       29.71R
$$

ILZ067-068-072-073-078-083-087-091-140200-
SOUTHEAST ILLINOIS

CITY           SKY/WX    TMP DP  RH WIND       PRES   REMARKS
LAWRENCEVILLE  MOCLDY    46  34  62 W21       29.63R
FLORA*         CLEAR     45  33  63 NW15G23   29.66R
FAIRFIELD*     CLEAR     46  33  60 NW8       29.66R
HARRISBURG*    CLEAR     42  28  57 W5        29.68R
ROBINSON*      CLOUDY    42  33  71 NW15G29   29.63R
CARMI*         CLOUDY    44  28  51 W12       29.66R
$$

ABBREVIATIONS USED IN REMARKS
   TC - TEMPERATURE IN CELSIUS
  WCI - WIND CHILL INDEX
   HX - HEAT INDEX
  VSB - VISIBILITY
$$




USA.gov is the U.S. government's official web portal to all federal, state and local government web resources and services.